Location: Mentone
(34.5413°N, 85.5351°W)
Time: 13:50:40
(UTC-05:00)

ADEOS Rocket - Visible Passes

Search period start: 02 September 2014 00:00
Search period end: 12 September 2014 00:00
Orbit: 859 x 1307 km, 98.7° (Epoch: 02 September)

Date Brightness Start Highest point End Pass type
(mag) Time Alt. Az. Time Alt. Az. Time Alt. Az.
02 Sep 4.4 20:19:23 15° ENE 20:20:23 16° ENE 20:23:41 10° NNE visible
02 Sep 3.5 22:06:21 50° WNW 22:06:21 50° WNW 22:10:59 10° NNW visible
03 Sep 3.1 21:16:53 49° NE 21:16:53 49° NE 21:22:04 10° N visible
03 Sep 5.2 23:03:50 16° WNW 23:03:50 16° WNW 23:05:59 10° NW visible
04 Sep 4.2 20:27:24 19° ENE 20:28:02 19° ENE 20:32:00 10° NNE visible
04 Sep 3.9 22:14:22 42° WNW 22:14:22 42° WNW 22:18:43 10° NNW visible
05 Sep 3.1 21:24:54 55° NE 21:24:54 55° NE 21:30:00 10° N visible
05 Sep 5.4 23:11:52 13° WNW 23:11:52 13° WNW 23:13:11 10° WNW visible
06 Sep 4.1 20:35:26 23° ENE 20:35:42 23° ENE 20:40:13 10° NNE visible
06 Sep 4.2 22:22:23 35° WNW 22:22:23 35° WNW 22:26:26 10° NNW visible
07 Sep 3.1 21:32:55 59° NNE 21:32:55 59° NNE 21:37:54 10° N visible
07 Sep 5.6 23:19:53 10° WNW 23:19:53 10° WNW 23:19:59 10° WNW visible
08 Sep 3.9 20:43:27 27° ENE 20:43:27 27° ENE 20:48:22 10° N visible
08 Sep 4.5 22:30:25 29° WNW 22:30:25 29° WNW 22:34:07 10° NNW visible
09 Sep 4.8 19:54:33 10° ENE 19:55:18 10° ENE 19:56:02 10° NE visible
09 Sep 3.3 21:40:57 57° N 21:40:57 57° N 21:45:47 10° NNW visible
10 Sep 3.7 20:51:29 32° ENE 20:51:29 32° ENE 20:56:27 10° N visible
10 Sep 4.8 22:38:27 25° WNW 22:38:27 25° WNW 22:41:45 10° NW visible
11 Sep 4.7 20:02:01 12° ENE 20:02:55 13° ENE 20:05:29 10° NNE visible
11 Sep 3.5 21:48:59 52° NNW 21:48:59 52° NNW 21:53:39 10° NNW visible
